Marshalltown, IA

11:15 AM CST on January 20, 2017 (GMT -0600)
Marshalltown Municipal

Weather History for KMIW - February, 2013

Change the Weather History Date:

Friday, February 1, 2013

  Actual Average Record
Temperature  
Mean Temperature 6 °F 20 °F  
Max Temperature 20 °F 29 °F 44 °F (2003)
Min Temperature -9 °F 11 °F -9 °F (2013)
Degree Days  
Heating Degree Days 59 45  
Month to date heating degree days 59 45  
Since 1 July heating degree days 3932 4278  
Cooling Degree Days 0 0  
Month to date cooling degree days 0 0  
Year to date cooling degree days 0 0  
Moisture  
Dew Point -4 °F    
Average Humidity 70    
Maximum Humidity 75    
Minimum Humidity 65    
Precipitation  
Precipitation T in 0.02 in 0.12 in (1998)
Month to date precipitation T 0.02  
Sea Level Pressure  
Sea Level Pressure 30.30 in    
Wind  
Wind Speed 11 mph (SW)    
Max Wind Speed 22 mph    
Max Gust Speed 26 mph    
Visibility 10 miles    
Events      
T = Trace of Precipitation, MM = Missing Value Source: NWS Daily Summary

Daily Weather History Graph

Daily Weather History Graph

Search for Another Location

Airport or City:

Trip Planner

Search our weather history database for the weather conditions in past years. The results will help you decide how hot, cold, wet, or windy it might be!

Date:

Astronomy

Feb. 01, 2013 Rise Set
Actual Time 7:24 AM CST 5:26 PM CST
Civil Twilight 6:54 AM CST 5:56 PM CST
Nautical Twilight 6:21 AM CST 6:29 PM CST
Astronomical Twilight 5:48 AM CST 7:02 PM CST
Moon 11:42 PM CST (2/1) 9:50 AM CST (2/1)
Length of Visible Light 11h 01m
Length of Day
10h 02m
Waning Gibbous, 70% of the Moon is Illuminated
Feb 1
Waning Gibbous
Feb 3
Last Quarter
Feb 10
New
Feb 17
First Quarter
Feb 25
Full

Hourly Weather History & Observations

Time (CST) Temp. Windchill Dew Point Humidity Pressure Visibility Wind Dir Wind Speed Gust Speed Precip Events Conditions
12:53 AM -2.9 °F -25.0 °F -11.0 °F 68% 30.41 in 10.0 mi WNW 18.4 mph - N/A   Clear
1:53 AM -4.0 °F -23.7 °F -11.0 °F 72% 30.41 in 10.0 mi WNW 13.8 mph - N/A   Clear
2:53 AM -5.1 °F -25.9 °F -11.9 °F 72% 30.41 in 10.0 mi WNW 15.0 mph - N/A   Clear
3:53 AM -6.0 °F -21.5 °F -13.0 °F 72% 30.43 in 10.0 mi West 8.1 mph - N/A   Clear
5:53 AM -7.1 °F -23.9 °F -13.0 °F 75% 30.43 in 10.0 mi WNW 9.2 mph - N/A   Clear
6:53 AM -7.1 °F -21.4 °F -14.1 °F 72% 30.42 in 10.0 mi West 6.9 mph - N/A   Clear
7:53 AM -7.1 °F -22.8 °F -13.0 °F 75% 30.43 in 10.0 mi West 8.1 mph - N/A   Clear
8:53 AM -5.1 °F - -11.9 °F 72% 30.42 in 10.0 mi Calm Calm - N/A   Clear
9:53 AM -2.9 °F -17.7 °F -11.0 °F 68% 30.43 in 10.0 mi WSW 8.1 mph - N/A   Clear
10:53 AM -0.9 °F -17.4 °F -9.0 °F 69% 30.43 in 10.0 mi SW 10.4 mph - N/A   Clear
11:53 AM 1.0 °F -11.7 °F -7.1 °F 69% 30.39 in 10.0 mi SSW 6.9 mph - N/A   Overcast
12:53 PM 3.0 °F -10.5 °F -5.1 °F 69% 30.35 in 10.0 mi SSW 8.1 mph - N/A   Overcast
1:53 PM 3.9 °F -10.4 °F -4.0 °F 70% 30.32 in 10.0 mi South 9.2 mph - N/A   Overcast
2:53 PM 5.0 °F -10.8 °F -4.0 °F 66% 30.28 in 10.0 mi South 11.5 mph - N/A   Overcast
3:53 PM 7.0 °F -11.0 °F -2.0 °F 67% 30.24 in 10.0 mi South 16.1 mph - N/A   Overcast
4:53 PM 8.1 °F -8.4 °F -0.9 °F 67% 30.23 in 9.0 mi South 13.8 mph - 0.00 in   Overcast
5:53 PM 9.0 °F -6.6 °F 1.0 °F 70% 30.19 in 10.0 mi South 12.7 mph - 0.00 in   Overcast
6:53 PM 10.9 °F -4.1 °F 3.0 °F 70% 30.17 in 10.0 mi South 12.7 mph - N/A   Overcast
7:53 PM 12.0 °F -2.0 °F 5.0 °F 73% 30.15 in 10.0 mi South 11.5 mph - N/A   Overcast
8:53 PM 16.0 °F 3.6 °F 8.1 °F 71% 30.13 in 10.0 mi South 10.4 mph - N/A   Overcast
9:53 PM 17.1 °F 5.0 °F 10.0 °F 74% 30.11 in 10.0 mi South 10.4 mph - N/A   Overcast
10:53 PM 19.0 °F 6.8 °F 10.9 °F 71% 30.09 in 10.0 mi SSW 11.5 mph - N/A   Overcast
11:53 PM 19.9 °F 8.6 °F 12.9 °F 74% 30.06 in 10.0 mi SSW 10.4 mph - 0.00 in   Overcast